TimeCDT,TemperatureF,Dew PointF,Humidity,Sea Level PressureIn,VisibilityMPH,Wind Direction,Wind SpeedMPH,Gust SpeedMPH,PrecipitationIn,Events,Conditions,WindDirDegrees,DateUTC
12:53 AM,39.0,34.0,82,30.14,10.0,Calm,Calm,-,N/A,,Mostly Cloudy,0,2013-10-24 05:53:00
1:53 AM,37.0,33.1,86,30.14,10.0,Calm,Calm,-,N/A,,Partly Cloudy,0,2013-10-24 06:53:00
2:53 AM,33.1,32.0,96,30.15,10.0,Calm,Calm,-,N/A,,Partly Cloudy,0,2013-10-24 07:53:00
3:53 AM,36.0,34.0,93,30.16,10.0,West,3.5,-,N/A,,Overcast,260,2013-10-24 08:53:00
4:40 AM,37.4,35.6,93,30.16,10.0,WSW,3.5,-,N/A,,Overcast,250,2013-10-24 09:40:00
4:53 AM,37.9,35.1,89,30.17,10.0,West,4.6,-,N/A,,Overcast,260,2013-10-24 09:53:00
5:51 AM,39.2,35.6,87,30.18,10.0,West,4.6,-,N/A,,Overcast,260,2013-10-24 10:51:00
5:53 AM,39.0,35.1,86,30.19,10.0,WSW,4.6,-,N/A,,Overcast,250,2013-10-24 10:53:00
6:46 AM,39.2,35.6,87,30.20,10.0,NW,11.5,-,N/A,,Overcast,310,2013-10-24 11:46:00
6:53 AM,39.9,35.1,83,30.21,10.0,NW,10.4,-,N/A,,Overcast,310,2013-10-24 11:53:00
7:53 AM,41.0,33.1,73,30.22,10.0,NW,11.5,-,N/A,,Overcast,320,2013-10-24 12:53:00
8:53 AM,41.0,28.9,62,30.26,10.0,NW,16.1,24.2,N/A,,Scattered Clouds,320,2013-10-24 13:53:00
9:53 AM,43.0,21.0,42,30.28,10.0,NW,20.7,27.6,N/A,,Partly Cloudy,320,2013-10-24 14:53:00
10:53 AM,45.0,21.9,40,30.29,10.0,NNW,17.3,27.6,N/A,,Partly Cloudy,330,2013-10-24 15:53:00
11:53 AM,48.0,21.9,36,30.29,10.0,NW,17.3,26.5,N/A,,Scattered Clouds,310,2013-10-24 16:53:00
12:53 PM,48.0,21.9,36,30.29,10.0,NW,16.1,27.6,N/A,,Mostly Cloudy,320,2013-10-24 17:53:00
1:53 PM,46.0,21.9,39,30.29,10.0,NW,11.5,23.0,N/A,,Overcast,320,2013-10-24 18:53:00
2:53 PM,48.0,23.0,37,30.29,10.0,NW,17.3,27.6,N/A,,Scattered Clouds,310,2013-10-24 19:53:00
3:53 PM,48.0,25.0,41,30.30,10.0,NNW,16.1,-,N/A,,Mostly Cloudy,340,2013-10-24 20:53:00
4:53 PM,46.0,24.1,42,30.32,10.0,NNW,16.1,-,N/A,,Partly Cloudy,330,2013-10-24 21:53:00
5:53 PM,43.0,24.1,47,30.34,10.0,NNW,11.5,-,N/A,,Clear,340,2013-10-24 22:53:00
6:53 PM,39.9,23.0,51,30.36,10.0,North,6.9,-,N/A,,Clear,350,2013-10-24 23:53:00
7:53 PM,39.9,24.1,53,30.38,10.0,North,10.4,-,N/A,,Scattered Clouds,350,2013-10-25 00:53:00
8:53 PM,37.0,24.1,59,30.40,10.0,North,5.8,-,N/A,,Partly Cloudy,350,2013-10-25 01:53:00
9:53 PM,30.9,24.1,76,30.41,10.0,Calm,Calm,-,N/A,,Clear,0,2013-10-25 02:53:00
10:53 PM,30.0,25.0,82,30.42,10.0,Calm,Calm,-,N/A,,Clear,0,2013-10-25 03:53:00
11:53 PM,28.9,24.1,82,30.43,10.0,Calm,Calm,-,N/A,,Clear,0,2013-10-25 04:53:00